Regional Weather Roundup
Issued by NWS

Home | Current Version | Previous Version | Text Only | Print | Product List | Glossary On
Versions: 1 2 3 4 5 6 7 8 9 10 11 12 13 14 15 16 17 18 19 20 21 22 23 24 25 26 27 28 29 30 31 32 33 34 35 36 37 38 39 40 41 42 43 44 45 46 47 48 49 50
613
ASUS45 KBOU 312107
RWRCO

WEATHER ROUNDUP FOR COLORADO
NATIONAL WEATHER SERVICE DENVER/BOULDER CO
300 PM MDT WED AUG 31 2016

NOTE: "FAIR" INDICATES FEW OR NO CLOUDS BELOW 12000 FEET WITH NO
SIGNIFICANT WEATHER AND/OR OBSTRUCTIONS TO VISIBILITY.

COZ001>005-013-030-031-312200-
...NORTHWEST COLORADO...

CITY           SKY/WX    TMP DP  RH WIND       PRES   REMARKS
CRAIG          FAIR      87  24  10 NW6       30.22F
HAYDEN         FAIR      82  28  14 W7G16     30.25F
MEEKER         FAIR      84  31  14 S7G16     30.23F
MOUNT WERNER   NOT AVBL
STEAMBOAT SPGS FAIR      82  33  17 SW7       30.26F
WALDEN         FAIR      77  27  15 N8        30.37F
$$

COZ006>008-011-312200-
...WEST CENTRAL VALLEYS...

CITY           SKY/WX    TMP DP  RH WIND       PRES   REMARKS
GRAND JUNCTION FAIR      88  44  21 W8        30.13F
MONTROSE       FAIR      85  40  20 CALM      30.21F
EAGLE          NOT AVBL
RIFLE          FAIR      87  35  15 CALM      30.16F
DELTA          FAIR      91  40  17 SE7       30.16F HAZE
NUCLA          FAIR     N/A N/A N/A S9        30.27F
$$

COZ017>023-064>068-312200-
...SOUTHWEST COLORADO...

CITY           SKY/WX    TMP DP  RH WIND       PRES   REMARKS
DURANGO        FAIR      78  41  26 VRB5      30.28F
CORTEZ         CLOUDY    73  50  44 S14       30.25F
PAGOSA SPRINGS CLOUDY    77  40  26 SW10      30.35F
TELLURIDE      PTSUNNY   67  43  41 W7G17     30.48F
WOLF CREEK PAS PTSUNNY   54  43  66 S9G16     30.67F
$$

COZ009-010-012-014-032>034-037-058>063-312200-
...CENTRAL COLORADO...

CITY           SKY/WX    TMP DP  RH WIND       PRES   REMARKS
ASPEN          FAIR      78  33  19 N6        30.33F
BUENA VISTA    PTSUNNY   75  39  27 E5G16     30.35F
COPPER MTN     PTSUNNY   59  34  38 CALM      30.68F
BERTHOUD PASS  FAIR      52  37  58 N8        30.71F
COTTONWOOD PAS CLOUDY    73  37  27 E6        30.50F
GUNNISON       FAIR      75  39  27 SW7       30.36F
KREMMLING      FAIR      81  27  13 CALM      30.32S
LEADVILLE      FAIR      66  33  29 W8        30.49F
MONARCH PASS   RAIN      50  41  71 S9        30.77S
SALIDA         FAIR      79  36  21 SE5       30.39F
SUNLIGHT       FAIR      64  36  34 CALM      30.61F
WILKERSON PASS PTSUNNY   55  39  54 E6        30.65F
$$

COZ069>075-312200-
...SAN LUIS VALLEY/SANGRE DE CRISTO MOUNTAINS...

CITY           SKY/WX    TMP DP  RH WIND       PRES   REMARKS
ALAMOSA        FAIR      76  41  28 VRB3      30.33F
LA VETA PASS   FAIR      55  50  82 MISG      30.54F
SAGUACHE       FAIR      73  43  33 N3        30.36F
$$

COZ035-036-038>040-312200-
...NORTHERN COLORADO FRONT RANGE...

CITY           SKY/WX    TMP DP  RH WIND       PRES   REMARKS
DENVER INTL AP FAIR      79  52  38 SW5       30.24F
DMNS CITY PARK   N/A     77  54  45 NE3G9     30.23F
AURORA         MOSUNNY   79  52  39 E1        30.25F
FRONT RANGE AP MOSUNNY   81  52  36 SE8       30.25F
ERIE MUNI ARPT FAIR      76  50  40 CALM      30.23F
BOULDER MUN AP FAIR      75  54  46 CALM      30.24F
CENTENNIAL     FAIR      77  53  43 NE8       30.26F
BROOMFIELD     MOSUNNY   75  52  43 SE7       30.27F
FORT COLLINS   FAIR      77  52  41 S8        30.21F
LONGMONT       FAIR      80  54  41 SE5       30.25F
$$

COZ041-046-047-076>085-087-088-312200-
...PIKES PEAK/PALMER DIVIDE AND SOUTHERN FOOTHILLS...

CITY           SKY/WX    TMP DP  RH WIND       PRES   REMARKS
COLO. SPRINGS  FAIR      74  50  42 VRB6      30.30F
A. F. ACADEMY  FAIR      73  51  45 S9        30.30F
SCHRIEVER AFB  NOT AVBL
ELLICOTT       FAIR       1  32 100 VRB6      30.28F WCI -10
FALCON         FAIR      73  48  41 SE9       30.35F
FORT CARSON    FAIR      75  52  43 VRB6      30.27F
LIMON          PTSUNNY   78  49  35 S7        30.23F
MONUMENT HILL  FAIR      70  50  49 CALM      30.35F
TRINIDAD       FAIR      79  45  29 E7        30.25F
$$

COZ042>045-048>051-090-091-312200-
...NORTHEAST COLORADO...

CITY           SKY/WX    TMP DP  RH WIND       PRES   REMARKS
GREELEY ARPT   FAIR      79  55  44 S6        30.23F
AKRON          FAIR      78  55  44 SE9G16    30.23F
BURLINGTON     LGT RAIN  63  58  83 SE6       30.25F
WRAY           NOT AVBL
STERLING       PTSUNNY   82  57  42 SE7       30.19F
HOLYOKE        FAIR      77  63  61 SE9       30.23F
FORT MORGAN    FAIR      81  53  38 E8        30.22F
$$

COZ086-089-092>099-312200-
...SOUTHEAST COLORADO...

CITY           SKY/WX    TMP DP  RH WIND       PRES   REMARKS
PUEBLO         FAIR      83  51  33 CALM      30.19F
LA JUNTA       FAIR      85  50  29 VRB6      30.17F
LAMAR          CLOUDY    83  55  38 E7        30.13F
SPRINGFIELD      N/A     76  60  57 SE10      30.19F
$$




USA.gov is the U.S. government's official web portal to all federal, state and local government web resources and services.